BAW315 LFPG-EGLL

Flight info

Callsign BAW315
Flight time 0h 45m
Altitude 24000
Route OPALE6G OPALE DCT KESAX DCT DIMAL DCT ALESO ALESO1H
Aircraft A319/M-SDE3FGIJ1KRWXY/LB1

Departure

Time 2026-05-05 21:14
Airport Charles de Gaulle International Airport (LFPG)

Arrival

Time 2026-05-05 22:00
Airport London Heathrow Airport (EGLL)
Time Latitude Longitude Altitude Speed Heading
2026-05-05 20:46 49.00190 2.56662 358 ft 0 kts 12°
2026-05-05 21:05 49.00186 2.56661 358 ft 3 kts 12°
2026-05-05 21:05 49.00160 2.56653 360 ft 4 kts
2026-05-05 21:05 49.00133 2.56652 363 ft 4 kts 345°
2026-05-05 21:06 49.00117 2.56667 360 ft 3 kts 270°
2026-05-05 21:06 49.00117 2.56671 360 ft 0 kts 265°
2026-05-05 21:09 49.00116 2.56661 358 ft 3 kts 265°
2026-05-05 21:10 49.00113 2.56602 358 ft 8 kts 263°
2026-05-05 21:10 49.00077 2.56566 359 ft 7 kts 176°
2026-05-05 21:10 49.00021 2.56573 359 ft 9 kts 176°
2026-05-05 21:10 48.99956 2.56580 363 ft 7 kts 175°
2026-05-05 21:11 48.99918 2.56541 362 ft 8 kts 250°
2026-05-05 21:11 48.99911 2.56435 363 ft 12 kts 266°
2026-05-05 21:11 48.99905 2.56302 360 ft 13 kts 265°
2026-05-05 21:11 48.99898 2.56168 360 ft 11 kts 265°
2026-05-05 21:12 48.99892 2.56065 361 ft 9 kts 263°
2026-05-05 21:12 48.99853 2.56014 364 ft 7 kts 188°
2026-05-05 21:12 48.99811 2.56019 361 ft 6 kts 174°
2026-05-05 21:12 48.99766 2.56026 361 ft 10 kts 174°
2026-05-05 21:13 48.99692 2.56035 361 ft 10 kts 175°
2026-05-05 21:13 48.99629 2.56042 361 ft 7 kts 175°
2026-05-05 21:13 48.99612 2.56079 362 ft 3 kts 86°
2026-05-05 21:13 48.99616 2.56148 366 ft 22 kts 85°
2026-05-05 21:14 48.99646 2.56694 361 ft 81 kts 85°
2026-05-05 21:14 48.99707 2.57845 357 ft 135 kts 85°
2026-05-05 21:14 48.99793 2.59492 574 ft 165 kts 83°
2026-05-05 21:14 48.99885 2.61229 1327 ft 164 kts 80°
2026-05-05 21:15 48.99979 2.62986 1933 ft 173 kts 78°
2026-05-05 21:15 49.00088 2.64940 2308 ft 198 kts 82°
2026-05-05 21:15 49.00209 2.67168 2797 ft 224 kts 83°
2026-05-05 21:15 49.00343 2.69663 3404 ft 248 kts 83°
2026-05-05 21:16 49.00483 2.72358 4272 ft 260 kts 84°
2026-05-05 21:16 49.00624 2.75145 5261 ft 268 kts 84°
2026-05-05 21:16 49.00767 2.78003 6292 ft 273 kts 85°
2026-05-05 21:16 49.00914 2.80907 7259 ft 278 kts 85°
2026-05-05 21:17 49.01142 2.83858 8165 ft 284 kts 75°
2026-05-05 21:17 49.02074 2.86534 9083 ft 291 kts 48°
2026-05-05 21:17 49.03701 2.88371 9961 ft 296 kts 22°
2026-05-05 21:17 49.05696 2.88993 10790 ft 299 kts 358°
2026-05-05 21:18 49.07750 2.88276 11396 ft 314 kts 333°
2026-05-05 21:18 49.09601 2.86305 11725 ft 335 kts 321°
2026-05-05 21:18 49.11456 2.84061 12385 ft 344 kts 320°
2026-05-05 21:18 49.13321 2.81790 13186 ft 348 kts 320°
2026-05-05 21:19 49.15246 2.79458 13963 ft 352 kts 320°
2026-05-05 21:19 49.17183 2.77131 14650 ft 357 kts 321°
2026-05-05 21:19 49.19149 2.74783 15321 ft 362 kts 321°
2026-05-05 21:19 49.21142 2.72404 16005 ft 366 kts 320°
2026-05-05 21:20 49.23169 2.69978 16652 ft 371 kts 321°
2026-05-05 21:20 49.25214 2.67530 17326 ft 376 kts 321°
2026-05-05 21:20 49.27284 2.65047 18068 ft 379 kts 322°
2026-05-05 21:20 49.29364 2.62551 18622 ft 382 kts 322°
2026-05-05 21:21 49.31467 2.60029 19043 ft 385 kts 322°
2026-05-05 21:21 49.33582 2.57488 19653 ft 388 kts 323°
2026-05-05 21:21 49.35719 2.54916 20282 ft 391 kts 322°
2026-05-05 21:21 49.37865 2.52325 20927 ft 394 kts 322°
2026-05-05 21:22 49.40026 2.49710 21516 ft 398 kts 322°
2026-05-05 21:22 49.42205 2.47067 22157 ft 401 kts 323°
2026-05-05 21:22 49.44403 2.44402 22739 ft 404 kts 323°
2026-05-05 21:22 49.46620 2.41713 23293 ft 408 kts 323°
2026-05-05 21:23 49.48857 2.38997 23717 ft 411 kts 323°
2026-05-05 21:23 49.51101 2.36267 23849 ft 412 kts 323°
2026-05-05 21:23 49.53294 2.33592 23890 ft 405 kts 323°
2026-05-05 21:23 49.55488 2.30914 23891 ft 402 kts 323°
2026-05-05 21:24 49.57687 2.28234 23888 ft 401 kts 323°
2026-05-05 21:24 49.59874 2.25566 23889 ft 400 kts 322°
2026-05-05 21:24 49.62048 2.22912 23885 ft 397 kts 323°
2026-05-05 21:24 49.64211 2.20272 23887 ft 396 kts 323°
2026-05-05 21:25 49.66367 2.17639 23883 ft 395 kts 323°
2026-05-05 21:25 49.68522 2.15006 23891 ft 395 kts 323°
2026-05-05 21:25 49.70676 2.12369 23893 ft 395 kts 323°
2026-05-05 21:25 49.72829 2.09727 23885 ft 395 kts 323°
2026-05-05 21:26 49.74981 2.07083 23886 ft 395 kts 323°
2026-05-05 21:26 49.77131 2.04431 23891 ft 395 kts 322°
2026-05-05 21:26 49.79280 2.01772 23889 ft 395 kts 322°
2026-05-05 21:26 49.81429 1.99107 23890 ft 396 kts 323°
2026-05-05 21:27 49.83579 1.96446 23904 ft 396 kts 323°
2026-05-05 21:27 49.85731 1.93782 23903 ft 396 kts 323°
2026-05-05 21:27 49.87881 1.91116 23902 ft 396 kts 323°
2026-05-05 21:27 49.90003 1.88487 23911 ft 396 kts 322°
2026-05-05 21:28 49.92182 1.85793 23900 ft 396 kts 323°
2026-05-05 21:28 49.94343 1.83137 23903 ft 396 kts 323°
2026-05-05 21:28 49.96508 1.80484 23909 ft 396 kts 322°
2026-05-05 21:28 49.98637 1.77870 23913 ft 395 kts 322°
2026-05-05 21:29 50.00795 1.75217 23918 ft 395 kts 322°
2026-05-05 21:29 50.02945 1.72561 23919 ft 395 kts 321°
2026-05-05 21:29 50.05094 1.69894 23922 ft 395 kts 322°
2026-05-05 21:29 50.07320 1.67398 23922 ft 395 kts 329°
2026-05-05 21:30 50.09766 1.65473 23922 ft 394 kts 335°
2026-05-05 21:30 50.12258 1.63683 23928 ft 394 kts 335°
2026-05-05 21:30 50.14748 1.61886 23932 ft 394 kts 335°
2026-05-05 21:30 50.17235 1.60086 23932 ft 394 kts 335°
2026-05-05 21:31 50.19719 1.58282 23924 ft 394 kts 335°
2026-05-05 21:31 50.22206 1.56471 23918 ft 395 kts 335°
2026-05-05 21:31 50.24696 1.54653 23919 ft 395 kts 335°
2026-05-05 21:31 50.27191 1.52825 23916 ft 396 kts 335°
2026-05-05 21:32 50.29681 1.51000 23917 ft 396 kts 335°
2026-05-05 21:32 50.32180 1.49176 23914 ft 396 kts 335°
2026-05-05 21:32 50.34673 1.47359 23922 ft 396 kts 335°
2026-05-05 21:32 50.37175 1.45532 23921 ft 396 kts 335°
2026-05-05 21:33 50.39640 1.43725 23916 ft 396 kts 335°
2026-05-05 21:33 50.42138 1.41889 23911 ft 397 kts 334°
2026-05-05 21:33 50.44637 1.40051 23910 ft 397 kts 334°
2026-05-05 21:33 50.47132 1.38188 23919 ft 397 kts 333°
2026-05-05 21:34 50.49457 1.35842 23928 ft 397 kts 323°
2026-05-05 21:34 50.51478 1.32892 23938 ft 397 kts 313°
2026-05-05 21:34 50.53344 1.29701 23945 ft 396 kts 313°
2026-05-05 21:34 50.55209 1.26519 23948 ft 396 kts 313°
2026-05-05 21:35 50.57079 1.23340 23949 ft 396 kts 313°
2026-05-05 21:35 50.58968 1.20188 23950 ft 395 kts 315°
2026-05-05 21:35 50.60897 1.17110 23956 ft 395 kts 315°
2026-05-05 21:35 50.62827 1.14106 23961 ft 395 kts 316°
2026-05-05 21:36 50.64788 1.11077 23959 ft 395 kts 316°
2026-05-05 21:36 50.66746 1.08037 23959 ft 395 kts 316°
2026-05-05 21:36 50.68691 1.04990 23960 ft 395 kts 315°
2026-05-05 21:36 50.70635 1.01917 23966 ft 395 kts 315°
2026-05-05 21:37 50.72568 0.98845 23965 ft 395 kts 315°
2026-05-05 21:37 50.74506 0.95751 23966 ft 397 kts 315°
2026-05-05 21:37 50.76470 0.92616 23954 ft 403 kts 315°
2026-05-05 21:37 50.78440 0.89475 23959 ft 402 kts 315°
2026-05-05 21:38 50.80395 0.86355 23625 ft 399 kts 316°
2026-05-05 21:38 50.82360 0.83213 22762 ft 403 kts 316°
2026-05-05 21:38 50.84327 0.80066 22037 ft 402 kts 316°
2026-05-05 21:38 50.86283 0.76930 21385 ft 399 kts 316°
2026-05-05 21:39 50.88226 0.73808 20788 ft 396 kts 315°
2026-05-05 21:39 50.90148 0.70721 20257 ft 391 kts 315°
2026-05-05 21:39 50.92055 0.67655 19680 ft 389 kts 315°
2026-05-05 21:39 50.93945 0.64611 19114 ft 386 kts 315°
2026-05-05 21:40 50.95825 0.61579 18551 ft 384 kts 315°
2026-05-05 21:40 50.97691 0.58567 17931 ft 381 kts 315°
2026-05-05 21:40 50.99540 0.55579 17306 ft 378 kts 315°
2026-05-05 21:40 51.01370 0.52619 16702 ft 374 kts 315°
2026-05-05 21:41 51.03181 0.49686 16112 ft 370 kts 315°
2026-05-05 21:41 51.04968 0.46788 15514 ft 365 kts 315°
2026-05-05 21:41 51.06736 0.43919 14945 ft 361 kts 315°
2026-05-05 21:41 51.08511 0.41101 14171 ft 361 kts 316°
2026-05-05 21:42 51.10325 0.38316 13030 ft 372 kts 317°
2026-05-05 21:42 51.12176 0.35532 12674 ft 358 kts 317°
2026-05-05 21:42 51.13955 0.32863 12296 ft 346 kts 317°
2026-05-05 21:42 51.15661 0.30286 12163 ft 329 kts 317°
2026-05-05 21:43 51.17281 0.27818 11984 ft 316 kts 317°
2026-05-05 21:43 51.18829 0.25452 11841 ft 300 kts 317°
2026-05-05 21:43 51.20308 0.23186 11518 ft 291 kts 317°
2026-05-05 21:43 51.21756 0.20970 11012 ft 287 kts 317°
2026-05-05 21:44 51.23188 0.18775 10551 ft 285 kts 317°
2026-05-05 21:44 51.24613 0.16585 10099 ft 283 kts 317°
2026-05-05 21:44 51.25995 0.14455 9919 ft 267 kts 317°
2026-05-05 21:44 51.27291 0.12451 9733 ft 252 kts 317°
2026-05-05 21:45 51.28535 0.10527 9341 ft 247 kts 317°
2026-05-05 21:45 51.29761 0.08637 8874 ft 244 kts 317°
2026-05-05 21:45 51.30974 0.06763 8412 ft 241 kts 317°
2026-05-05 21:45 51.32150 0.04861 8031 ft 241 kts 310°
2026-05-05 21:46 51.32979 0.02541 7745 ft 242 kts 292°
2026-05-05 21:46 51.33315 -0.00094 7464 ft 243 kts 277°
2026-05-05 21:46 51.33470 -0.02788 7134 ft 243 kts 277°
2026-05-05 21:46 51.33630 -0.05465 6980 ft 242 kts 277°
2026-05-05 21:47 51.33793 -0.08138 6975 ft 242 kts 277°
2026-05-05 21:47 51.33956 -0.10826 6974 ft 242 kts 277°
2026-05-05 21:47 51.34115 -0.13463 6974 ft 242 kts 278°
2026-05-05 21:47 51.34279 -0.16137 6974 ft 242 kts 277°
2026-05-05 21:48 51.34440 -0.18812 6973 ft 241 kts 277°
2026-05-05 21:48 51.34599 -0.21487 6975 ft 242 kts 277°
2026-05-05 21:48 51.34756 -0.24159 6976 ft 242 kts 277°
2026-05-05 21:48 51.34914 -0.26837 6973 ft 241 kts 277°
2026-05-05 21:49 51.35070 -0.29513 6975 ft 241 kts 277°
2026-05-05 21:49 51.35225 -0.32190 6975 ft 242 kts 277°
2026-05-05 21:49 51.35381 -0.34865 6975 ft 242 kts 277°
2026-05-05 21:49 51.35537 -0.37538 6973 ft 241 kts 277°
2026-05-05 21:50 51.35695 -0.40213 6975 ft 241 kts 277°
2026-05-05 21:50 51.35851 -0.42888 6973 ft 241 kts 277°
2026-05-05 21:50 51.36005 -0.45559 6974 ft 241 kts 277°
2026-05-05 21:50 51.36106 -0.47328 6975 ft 242 kts 277°
2026-05-05 21:51 51.36257 -0.50008 6975 ft 242 kts 277°
2026-05-05 21:51 51.36408 -0.52691 6975 ft 242 kts 277°
2026-05-05 21:51 51.36556 -0.55364 6976 ft 242 kts 277°
2026-05-05 21:51 51.36704 -0.58044 6975 ft 242 kts 277°
2026-05-05 21:52 51.37001 -0.63411 6976 ft 242 kts 277°
2026-05-05 21:52 51.37135 -0.66092 6976 ft 242 kts 274°
2026-05-05 21:52 51.37162 -0.68801 6651 ft 246 kts 271°
2026-05-05 21:53 51.37131 -0.71547 6218 ft 247 kts 270°
2026-05-05 21:53 51.37140 -0.74266 5870 ft 242 kts 280°
2026-05-05 21:53 51.37765 -0.76700 5506 ft 236 kts 309°
2026-05-05 21:53 51.39002 -0.78280 5154 ft 230 kts 338°
2026-05-05 21:54 51.40535 -0.78765 4841 ft 223 kts 360°
2026-05-05 21:54 51.42069 -0.78829 4573 ft 216 kts 359°
2026-05-05 21:54 51.43529 -0.78902 4310 ft 204 kts 360°
2026-05-05 21:54 51.44921 -0.78975 4059 ft 198 kts 360°
2026-05-05 21:55 51.46291 -0.79001 3789 ft 194 kts
2026-05-05 21:55 51.47413 -0.78009 3537 ft 186 kts 56°
2026-05-05 21:55 51.47660 -0.76058 3349 ft 182 kts 95°
2026-05-05 21:55 51.47583 -0.74036 3210 ft 182 kts 87°
2026-05-05 21:56 51.47615 -0.72020 2998 ft 181 kts 88°
2026-05-05 21:56 51.47636 -0.69998 2766 ft 180 kts 88°
2026-05-05 21:56 51.47651 -0.67996 2549 ft 179 kts 88°
2026-05-05 21:56 51.47663 -0.66023 2309 ft 177 kts 88°
2026-05-05 21:57 51.47673 -0.64124 2089 ft 171 kts 89°
2026-05-05 21:57 51.47684 -0.62224 1843 ft 166 kts 89°
2026-05-05 21:57 51.47693 -0.60411 1615 ft 159 kts 89°
2026-05-05 21:57 51.47702 -0.58658 1399 ft 154 kts 89°
2026-05-05 21:58 51.47710 -0.57016 1202 ft 144 kts 89°
2026-05-05 21:58 51.47717 -0.55461 1002 ft 136 kts 89°
2026-05-05 21:58 51.47719 -0.53937 820 ft 137 kts 88°
2026-05-05 21:58 51.47734 -0.52408 630 ft 137 kts 88°
2026-05-05 21:59 51.47745 -0.50896 412 ft 135 kts 88°
2026-05-05 21:59 51.47747 -0.49421 241 ft 130 kts 88°
2026-05-05 21:59 51.47752 -0.47989 94 ft 122 kts 89°
2026-05-05 21:59 51.47756 -0.46815 91 ft 83 kts 90°
2026-05-05 22:00 51.47758 -0.46262 88 ft 13 kts 91°
2026-05-05 22:00 51.47697 -0.46137 88 ft 13 kts 145°
2026-05-05 22:00 51.47637 -0.46072 86 ft 6 kts 150°
2026-05-05 22:00 51.47596 -0.46097 86 ft 8 kts 244°
2026-05-05 22:01 51.47595 -0.46195 86 ft 10 kts 269°
2026-05-05 22:01 51.47593 -0.46313 86 ft 12 kts 269°
2026-05-05 22:01 51.47593 -0.46454 86 ft 14 kts 270°
2026-05-05 22:01 51.47593 -0.46620 86 ft 16 kts 270°
2026-05-05 22:02 51.47592 -0.46774 86 ft 10 kts 269°
2026-05-05 22:02 51.47584 -0.46898 86 ft 12 kts 265°
2026-05-05 22:02 51.47583 -0.47042 87 ft 14 kts 270°
2026-05-05 22:02 51.47583 -0.47208 89 ft 16 kts 269°
2026-05-05 22:03 51.47582 -0.47393 86 ft 18 kts 270°
2026-05-05 22:03 51.47581 -0.47601 88 ft 19 kts 270°
2026-05-05 22:03 51.47581 -0.47814 86 ft 20 kts 269°
2026-05-05 22:03 51.47580 -0.48029 86 ft 15 kts 269°
2026-05-05 22:04 51.47580 -0.48179 90 ft 12 kts 270°
2026-05-05 22:04 51.47578 -0.48303 90 ft 10 kts 269°
2026-05-05 22:04 51.47578 -0.48405 89 ft 8 kts 268°
2026-05-05 22:04 51.47558 -0.48474 90 ft 6 kts 214°
2026-05-05 22:05 51.47517 -0.48478 86 ft 6 kts 176°
2026-05-05 22:05 51.47470 -0.48475 86 ft 8 kts 179°
2026-05-05 22:05 51.47402 -0.48474 86 ft 11 kts 179°
2026-05-05 22:05 51.47312 -0.48473 86 ft 15 kts 179°
2026-05-05 22:06 51.47209 -0.48472 86 ft 14 kts 179°
2026-05-05 22:06 51.47118 -0.48472 86 ft 12 kts 180°
2026-05-05 22:06 51.47042 -0.48471 86 ft 10 kts 179°
2026-05-05 22:06 51.46977 -0.48470 86 ft 9 kts 179°
2026-05-05 22:07 51.46917 -0.48470 87 ft 8 kts 180°
2026-05-05 22:07 51.46879 -0.48513 86 ft 7 kts 257°
2026-05-05 22:07 51.46877 -0.48587 86 ft 7 kts 270°
2026-05-05 22:07 51.46886 -0.48646 86 ft 4 kts 322°
2026-05-05 22:08 51.46910 -0.48646 86 ft 2 kts
2026-05-05 22:08 51.46923 -0.48647 88 ft 2 kts 359°
2026-05-05 22:08 51.46931 -0.48647 89 ft 1 kts 359°
2026-05-05 22:08 51.46932 -0.48647 89 ft 0 kts 359°